Skip Page Navigation
NASA JPL Caltech
NASA Logo - Jet Propulsion Laboratory + View the NASA Portal
+ Center for Near-Earth Object Studies
JPL Home Earth Solar System Stars & Galaxies Technology
JPL Solar System Dynamics
BODIES ORBITS EPHEMERIDES TOOLS PHYSICAL DATA DISCOVERY FAQ SITE MAP
JPL Small-Body Database Browser
Search: [ help ]  
79304 (1995 WM35)
Classification: Main-belt Asteroid          SPK-ID: 2079304
Ephemeris | Orbit Diagram | Orbital Elements | Mission Design | Physical Parameters | Discovery Circumstances ]

[ show orbit diagram ]
Orbital Elements at Epoch 2459000.5 (2020-May-31.0) TDB
Reference: JPL 26 (heliocentric ecliptic J2000)
 Element Value Uncertainty (1-sigma)   Units 
e .1799022212675104 4.3145e-08  
a 2.240420565389672 7.1446e-09 au
q 1.837363929102658 9.6793e-08 au
i 6.490403934778203 4.1205e-06 deg
node 42.30083230185657 2.9825e-05 deg
peri 329.8722424370358 3.1075e-05 deg
M 137.3078563323844 9.1473e-06 deg
tp 2458533.318497772974
(2019-Feb-18.81849777)
3.0143e-05 TDB
period 1224.877769518149
3.35
5.8591e-06
1.604e-08
d
yr
n .2939068770442453 1.4059e-09 deg/d
Q 2.643477201676685 8.43e-09 au
  Orbit Determination Parameters
   # obs. used (total)      1104  
   data-arc span      8925 days (24.44 yr)  
   first obs. used      1995-11-21  
   last obs. used      2020-04-28  
   planetary ephem.      DE431  
   SB-pert. ephem.      SB431-N16  
   condition code      0  
   norm. resid. RMS      .51161  
   source      ORB  
   producer      Otto Matic  
   solution date      2020-May-20 14:39:30  

Additional Information
 Earth MOID = .841533 au 
 Jupiter MOID = 2.8222 au 
 T_jup = 3.605 
[ show covariance matrix ]

Ephemeris | Orbit Diagram | Orbital Elements | Mission Design | Physical Parameters | Discovery Circumstances ]

Physical Parameter Table
Parameter Symbol Value Units Sigma Reference Notes
absolute magnitude H 15.4   n/a MPO453215  
diameter diameter 2.679 km 0.440 urn:nasa:pds:neowise_diameters_albedos::2.0[mainbelt] (http://adsabs.harvard.edu/abs/2011ApJ...741...68M)  
geometric albedo albedo 0.187   0.053 urn:nasa:pds:neowise_diameters_albedos::2.0[mainbelt] (http://adsabs.harvard.edu/abs/2011ApJ...741...68M)  

79304 (1995 WM35)          Discovered 1995-Nov-21 by Spacewatch at Kitt Peak
Reference: 20040504/Numbers.arcLast Updated: 2004-07-16

Alternate Designations
 1995 WM35 = 2000 EQ146 
Ephemeris | Orbit Diagram | Orbital Elements | Mission Design | Physical Parameters | Discovery Circumstances ]
ABOUT SSD CREDITS/AWARDS PRIVACY/COPYRIGHT GLOSSARY LINKS
FirstGov 2020-Sep-22 14:59 UT
(server date/time)  
NASA Home Page
Site Manager:   Ryan S. Park
Webmaster  Alan B. Chamberlin